SCP
0 0 0 0 0 0 0 0 0 0 0 0 0 0 0 0 0 0 0 0 0 0 0 0 0 0 0 0 0 0 0 0 0 0 -0 0 0 -0 0 0 -0 -0 0 0 0 -0 0 0 0 0 0 0 0 0
0 0 0 0 0 0 0 0 0 0 0 0 0 0 0 0 0 0 0 0 0 0 0 0 0 0 0 0 0 0 0 0 0 0 0 0 0 0 -0 -0 -0 0 0 0 -0 0 0 -0 0 0 0 0 0 0
0 0 0 0 0 0 0 0 0 0 0 0 0 0 0 0 0 0 0 0 0 0 0 0 0 0 0 0 0 0 0 0 0 0 0 0 0 0 -0 -0 -0 -0 0 0 0 0 -0 -0 0 0 0 0 0 0
0 0 0 0 0 0 0 0 0 0 0 0 0 0 0 0 0 0 0 0 0 0 0 0 -0 -0 0 0 0 0 0 0 0 0 0 0 0 -0 0 -0 -0 -0 0 -0 -0 0 -0 -0 0 -0 0 0 0 0
0 0 0 0 0 0 0 0 0 0 0 0 0 0 -0 -0 0 0 0 0 0 0 0 0 -0 0 0 0 0 0 0 0 0 0 0 0 0 -0 0 -0 -0 -0 -0 -0 -0 -0 -0 0 -0 0 0 0 0 0
0 0 0 0 0 0 0 0 0 0 0 0 -0 0 -0 -0 -0 0 0 0 0 0 0 0 0 0 0 0 0 0 0 0 0 0 0 -0 -0 -0 -0 -0 -0 -0 0 -0 -0 0 0 0 0 0 0 0 0 0
0 0 0 0 0 0 0 0 0 0 0 0 0 0 0 0 0 0 0 0 0 0 0 0 0 0 0 0 0 0 0 0 0 0 0 0 -0 -0 -0 -0 -0 -0 0 -0 -0 0 0 0 0 -0 0 0 0 0
0 0 0 -0 0 0 0 0 0 0 0 0 0 0 0 0 0 0 0 0 0 0 0 0 0 0 0 0 0 0 0 0 0 0 0 0 0 0 -0 -0 -0 -0 -0 -0 0 0 0 0 0 0 0 0 0 0
0 0 0 0 0 0 0 0 0 0 0 0 0 0 0 0 0 0 0 0 0 0 0 0 0 0 -0 0 0 0 0 0 0 0 0 0 0 0 0 -0 -0 -0 -0 -0 0 0 0 0 0 0 0 0 0 0
0 0 0 0 0 0 0 0 0 0 0 0 0 0 0 0 0 0 0 0 0 0 0 0 0 0 0 -0 0 0 0 0 0 -0 0 0 0 0 0 0 0 -0 -0 0 0 0 0 0 0 0 0 0 0 0
0 0 0 0 0 0 0 0 0 0 0 0 0 0 0 0 0 0 0 0 0 0 0 0 0 0 0 0 0 0 0 0 0 0 0 0 0 0 0 0 0 0 -0 -0 -0 -0 -0 0 0 0 0 0 0 0
0 0 0 0 0 0 0 0 0 0 0 0 0 0 0 0 0 0 0 0 0 0 0 0 0 0 0 0 0 0 0 0 0 0 0 0 0 0 0 0 0 0 0 -0 -0 0 -0 0 0 0 0 0 0 0
0 0 0 0 0 0 0 0 0 0 0 0 0 0 0 0 0 0 0 0 0 0 0 0 0 0 0 0 0 0 0 0 -0 -0 0 0 0 0 0 0 0 0 0 0 -0 -0 -0 -0 -0 -0 0 0 0 0
0 0 0 0 0 0 0 0 0 0 0 0 0 0 0 0 0 0 -0 -0 0 -0 0 0 0 0 0 0 0 0 0 0 0 -0 0 0 0 -0 0 0 0 0 -0 -0 0 -0 -0 -0 -0 -0 0 0 0 0
0 0 0 0 0 0 0 0 0 0 0 0 0 0 0 0 -0 -0 0 0 0 0 0 0 0 0 0 0 0 0 0 0 0 0 0 0 -0 -0 0 0 0 0 0 -0 -0 -0 -0 -0 -0 -0 0 0 0 0
0 0 0 0 0 0 0 0 0 0 0 0 0 0 -0 0 0 0 0 0 0 0 0 0 0 0 0 0 0 0 0 0 0 0 0 0 0 0 0 0 0 0 0 0 0 -0 0 -0 -0 -0 0 0 -0 -0
0 0 0 0 -0 0 0 0 0 0 0 0 0 0 0 0 0 0 0 0 0 0 0 0 0 0 0 0 0 0 0 0 0 0 0 0 0 0 0 0 -0 0 0 0 0 0 -0 0 0 0 0 0 -0 0
0 0 0 0 0 0 0 0 0 0 0 0 0 0 0 0 0 0 0 0 0 0 0 0 0 0 0 0 0 0 0 0 0 0 0 0 0 0 0 0 -0 -0 0 -0 -0 0 0 -0 -0 -0 -0 -0 -0 0
0 0 0 0 0 0 0 0 0 0 0 0 0 0 0 0 0 0 0 0 0 0 0 0 0 0 0 0 0 0 0 0 0 0 0 -0 0 0 0 0 0 -0 0 0 -0 0 0 -0 -0 -0 -0 -0 -0 -0
0 0 0 0 0 0 0 0 0 0 0 0 0 0 0 0 0 0 0 0 -0 0 0 0 0 0 0 0 0 0 0 0 0 0 0 0 0 0 0 0 0 0 0 0 0 -0 0 0 0 -0 -0 -0 -0 -0
0 0 0 0 0 0 0 0 0 0 0 0 0 0 0 0 0 0 0 0 0 0 0 0 0 0 0 -0 0 0 0 0 0 0 0 0 0 0 0 0 0 -0 -0 0 0 0 0 0 0 0 0 -0 -0 -0
0 0 0 0 0 0 0 0 0 0 0 0 0 0 0 0 0 0 0 0 0 0 0 0 0 0 0 0 0 0 0 0 0 0 0 0 0 0 0 -0 -0 -0 0 0 -0 0 0 0 0 -0 0 0 0 0
0 0 0 0 0 0 0 0 0 0 0 0 0 0 0 0 0 0 0 0 0 0 0 0 0 0 0 0 0 0 0 0 0 0 0 0 0 0 0 0 0 0 0 0 0 0 0 0 0 -0 0 0 0 0
0 0 0 0 0 0 0 0 0 0 0 0 0 0 0 0 0 0 0 0 0 0 0 0 0 0 0 0 0 0 0 0 0 0 0 0 0 0 0 0 0 0 0 0 0 0 0 0 0 0 0 0 0 0
0 0 0 0 0 0 0 0 0 0 0 0 0 0 0 0 0 0 0 0 0 0 0 0 0 0 0 0 0 0 0 0 0 0 0 0 0 0 0 0 0 0 0 0 0 0 0 0 0 0 0 0 0 0
0 0 0 0 0 0 0 -0 -0 0 0 0 0 0 0 0 0 0 0 0 0 0 0 0 0 0 0 0 0 0 0 0 0 0 0 0 0 0 0 0 0 0 0 0 0 0 0 0 0 0 0 0 0 0
0 0 0 0 0 0 0 -0 0 0 0 0 0 -0 -0 -0 0 0 0 0 0 0 0 0 0 0 0 0 0 0 0 0 0 0 0 0 0 0 0 0 0 0 0 0 0 0 0 0 0 0 0 0 0 0
0 0 -0 0 -0 -0 -0 -0 0 0 0 0 -0 0 0 0 -0 0 0 -0 0 0 0 0 0 0 0 0 0 0 0 0 0 0 0 0 0 0 0 0 0 0 0 0 0 0 0 0 0 0 0 0 0 0
0 0 0 -0 -0 0 0 -0 -0 0 0 0 0 0 0 -0 -0 0 -0 -0 -0 -0 0 0 0 0 0 0 0 0 0 0 0 0 0 0 0 0 0 0 0 0 0 0 0 0 0 0 0 0 0 0 0 0
0 0 0 -0 -0 -0 -0 0 -0 0 0 0 0 0 0 0 0 0 0 0 0 -0 -0 -0 -0 0 0 0 0 0 0 0 0 0 0 0 0 0 0 0 0 0 0 0 0 0 0 0 0 0 0 0 0 0
0 0 0 -0 -0 -0 -0 -0 -0 -0 0 0 0 0 0 0 0 0 0 0 0 0 0 0 -0 -0 0 0 0 0 0 0 0 0 0 0 -0 0 0 0 0 0 0 0 0 0 0 0 0 0 0 0 0 0
0 0 0 0 0 0 0 0 0 0 -0 -0 -0 0 0 0 0 0 0 0 0 0 0 0 0 0 0 0 0 0 0 0 0 0 0 0 0 0 0 0 0 0 0 0 0 0 0 0 0 0 0 0 0 0
0 0 0 0 0 0 0 0 0 0 0 -0 0 0 0 0 0 0 0 0 0 -0 0 0 0 0 0 0 0 0 0 0 0 0 0 0 0 0 0 0 0 0 0 0 0 0 0 0 0 0 0 0 0 0
Wind_Speed_500mb
62 62 62 61 59 55 54 59 59 64 59 51 49 46 46 48 49 48 52 14 32 27 63 55 34 50 60 50 5 20 22 10 8 12 6 7 5 8 9 8 15 7 8 7 9 5 8 40 16 18 20 35 30 33
61 63 60 59 62 62 58 54 61 66 55 48 49 47 46 46 45 49 50 14 25 33 57 75 54 45 46 34 38 7 5 12 9 6 6 6 4 7 11 7 12 6 4 5 8 4 8 32 32 39 41 46 32 47
62 62 62 62 66 63 67 59 61 64 64 52 49 47 45 46 47 52 54 38 22 33 52 16 25 16 13 24 34 9 8 7 7 9 7 5 5 4 4 5 6 6 10 4 4 12 12 36 54 54 68 44 50 55
64 65 65 62 62 65 73 69 63 60 59 59 48 47 45 48 50 55 55 27 22 18 10 22 30 42 7 28 24 17 11 11 15 13 9 5 5 9 2 4 4 9 11 15 4 16 4 12 41 47 57 49 46 49
69 67 67 66 66 70 70 65 54 54 59 53 46 45 47 49 53 52 47 28 34 21 9 30 52 26 29 39 25 24 17 10 6 9 6 5 9 1 8 5 5 13 8 6 6 26 21 30 16 31 52 51 43 39
71 70 68 68 67 62 65 62 55 54 57 55 44 44 46 48 51 35 11 4 20 37 11 8 25 24 22 31 30 33 26 19 10 11 9 11 12 9 4 3 5 21 29 25 9 24 32 31 23 29 35 44 45 41
65 67 64 56 54 57 59 60 53 52 53 42 38 38 42 44 39 16 8 3 18 29 8 11 10 11 22 26 29 35 31 24 19 10 8 8 14 4 4 4 10 12 22 28 30 27 25 30 28 33 27 24 34 34
53 54 52 52 53 54 56 56 49 46 42 36 35 40 40 32 19 15 27 10 19 20 11 6 8 13 20 16 14 22 19 24 14 10 9 8 13 7 4 5 14 13 14 23 25 20 24 28 27 25 32 29 32 41
51 51 52 51 50 52 54 54 47 43 41 37 32 34 27 7 7 10 16 19 39 17 7 8 5 7 7 14 9 10 16 5 14 7 6 4 4 2 6 11 9 16 8 30 25 24 28 28 27 30 33 32 43 41
47 48 46 46 47 49 50 48 44 44 33 26 18 8 4 5 12 9 7 8 11 15 13 10 27 10 8 16 5 3 6 5 4 9 6 3 3 18 16 8 7 4 2 23 30 31 34 31 33 31 30 29 29 33
48 47 45 45 46 46 45 44 39 37 23 17 10 8 8 4 9 9 10 14 15 9 16 17 35 18 1 6 4 2 5 7 4 4 5 5 3 3 3 11 6 7 9 9 24 17 18 27 21 25 25 24 21 23
45 43 42 43 43 41 39 33 24 20 16 21 27 37 24 7 11 10 7 8 12 8 21 10 19 28 10 6 4 4 3 6 7 9 8 6 6 15 4 12 14 18 16 12 22 28 27 36 34 29 25 24 25 23
41 38 36 36 36 32 29 19 21 28 32 14 5 6 6 9 8 11 11 8 7 9 21 22 7 16 9 7 3 1 1 8 21 8 4 4 25 18 6 6 18 21 24 22 15 31 23 27 26 31 35 37 35 32
37 32 30 27 16 20 18 26 28 29 17 7 7 8 11 10 11 12 14 12 8 24 10 6 15 12 11 8 6 5 7 3 7 4 2 8 16 3 16 20 11 17 19 23 29 33 30 27 32 34 35 39 39 38
36 29 22 11 16 28 32 35 31 25 9 10 11 9 13 29 34 33 40 41 36 12 5 4 5 11 4 2 5 2 4 4 8 7 3 20 28 15 11 7 8 14 16 14 19 26 27 27 30 31 34 33 38 52
31 14 11 29 40 46 50 42 22 18 9 11 17 15 33 25 25 31 24 17 31 15 12 6 2 6 7 7 6 10 6 8 7 6 13 15 32 28 23 15 8 8 11 9 14 23 24 22 23 25 26 29 31 49
24 7 30 46 53 45 30 21 8 15 14 13 16 30 44 46 40 50 45 26 10 19 5 5 1 10 5 3 5 7 9 8 16 21 17 6 19 12 22 16 16 11 10 6 10 22 22 15 14 13 22 32 28 36
31 31 33 32 37 35 13 10 11 14 21 27 19 35 38 45 50 53 54 44 27 20 34 11 15 7 6 7 6 8 21 17 21 20 23 9 18 19 22 13 22 18 11 4 1 25 21 19 18 26 23 24 27 35
38 35 27 23 18 17 8 10 16 13 18 28 38 45 49 49 53 54 53 47 36 31 8 13 6 7 10 13 6 4 15 25 31 28 20 20 29 21 14 15 20 22 10 9 4 5 13 17 22 18 21 25 25 32
38 28 19 12 19 9 10 14 17 16 12 19 41 41 41 40 45 46 45 40 28 34 18 8 8 16 22 16 14 17 32 39 18 4 14 25 11 24 20 17 19 12 10 11 17 21 21 22 18 21 26 19 25 28
37 5 18 19 25 23 14 13 15 21 23 25 33 40 35 38 35 34 37 39 31 7 8 20 33 40 48 44 38 28 20 24 29 27 31 30 32 23 25 24 17 20 17 11 31 20 19 20 21 25 15 21 23 20
40 23 26 20 13 13 19 25 20 17 23 30 42 45 23 25 37 48 53 44 28 28 38 53 48 48 51 49 44 24 20 24 28 34 24 31 34 37 28 40 32 24 13 10 19 29 28 23 24 18 16 15 16 19
21 24 20 15 14 13 15 23 20 16 10 9 25 24 15 23 36 46 25 36 47 51 48 46 46 56 49 34 25 16 26 31 26 29 33 31 26 29 37 33 34 32 31 22 24 30 22 23 19 24 16 15 14 7
28 15 9 13 25 11 12 19 25 27 25 21 22 35 31 32 42 29 20 33 40 42 40 26 13 10 16 23 18 18 26 29 31 29 37 33 22 33 38 29 24 25 22 25 27 22 17 23 20 18 15 12 8 4
11 12 12 13 13 10 10 15 25 23 31 31 36 27 16 36 21 27 26 27 38 46 33 18 18 9 6 22 18 23 7 11 14 30 20 31 31 42 30 31 26 22 29 26 32 30 27 26 19 16 10 9 2 1
9 11 11 9 9 12 13 26 25 24 19 14 7 14 18 11 15 11 4 31 34 45 48 36 44 32 11 2 12 12 5 10 11 14 19 15 35 36 53 53 40 30 36 36 38 34 30 29 22 14 8 2 7 4
10 13 18 25 34 40 20 32 39 18 23 20 15 17 8 8 7 13 13 32 38 42 38 31 24 45 20 18 12 13 16 15 3 6 8 15 22 32 38 40 41 41 42 36 34 34 40 34 26 17 20 15 7 8
23 19 26 36 39 41 26 23 26 28 17 16 11 6 12 3 4 9 9 27 31 46 56 48 30 42 44 36 31 20 21 19 14 5 4 10 29 34 34 33 27 46 42 41 38 34 32 29 35 32 23 20 15 8
21 29 41 37 43 39 30 23 25 39 35 39 21 16 4 7 6 13 20 27 25 43 50 43 33 36 31 29 37 29 27 22 21 19 8 9 8 17 39 38 42 55 53 45 42 41 39 33 31 32 30 24 18 10
35 41 36 38 32 27 49 39 46 54 46 46 42 42 20 11 17 10 10 12 20 24 19 17 27 32 30 27 25 26 25 25 17 16 13 14 16 34 20 45 56 56 55 55 49 47 41 40 39 37 33 29 19 13
26 25 27 36 33 44 45 46 36 36 43 41 38 34 19 22 14 36 37 30 25 24 23 27 31 30 24 20 22 23 25 25 19 12 9 3 11 25 18 40 50 50 45 45 44 46 39 33 35 38 39 32 26 28
22 13 19 23 28 34 27 24 26 27 28 28 25 31 15 14 13 19 42 35 32 30 26 22 23 23 23 20 12 13 11 11 17 22 14 4 21 21 7 26 27 44 50 45 36 28 34 41 41 45 32 30 31 25
33 36 34 20 7 6 2 12 6 7 19 20 5 20 18 14 13 21 29 34 28 22 22 27 29 26 25 25 25 22 15 15 11 6 15 17 21 17 11 11 20 26 30 34 41 33 29 35 36 39 40 37 30 20
Wind_Direction_500mb
309 309 310 313 316 315 321 321 320 323 319 315 317 322 328 328 329 327 324 306 251 267 282 288 294 284 304 301 295 314 337 2 318 9 341 359 345 340 314 355 337 15 325 344 317 43 24 342 350 30 313 316 305 323
308 309 309 312 312 311 312 315 313 317 318 315 312 315 322 325 325 325 314 296 286 268 272 294 300 290 272 267 273 279 255 280 328 330 3 314 328 319 331 357 344 41 353 321 7 18 357 1 348 325 329 282 321 11
308 309 309 310 310 310 312 310 311 312 317 308 309 311 315 321 322 321 311 312 262 281 302 304 326 316 271 241 254 215 252 252 270 320 301 283 283 263 342 329 283 325 38 19 348 28 53 19 354 344 329 338 3 11
310 309 308 308 309 308 310 311 309 309 307 312 302 309 311 315 319 316 308 300 236 269 276 282 293 296 321 225 245 254 227 260 280 291 255 268 252 240 140 258 1 305 329 325 257 349 279 334 350 331 326 349 2 7
306 305 307 305 305 307 311 310 312 311 310 312 298 304 311 311 314 314 310 291 208 224 284 299 320 358 224 223 242 247 240 235 292 264 221 244 254 215 96 274 30 350 336 7 328 345 325 318 339 344 330 339 354 0
302 302 299 300 305 312 311 310 313 313 310 308 299 303 303 308 312 316 322 354 198 218 281 303 288 293 206 223 229 246 248 254 253 284 261 263 282 0 104 105 353 2 345 341 294 318 320 340 350 332 330 333 350 340
304 303 302 309 313 310 310 311 316 314 310 311 310 303 298 305 300 232 248 184 195 213 264 281 281 299 222 223 239 236 237 230 232 271 251 252 304 107 60 52 26 331 339 336 338 342 336 333 318 323 316 339 344 355
312 317 316 313 311 310 310 313 316 315 321 321 311 300 297 304 286 268 216 197 183 215 250 269 275 279 203 239 230 230 216 218 228 238 268 269 311 85 79 73 359 5 333 344 347 337 322 328 326 350 20 17 8 10
312 311 311 312 311 312 313 317 319 309 318 320 311 304 299 222 229 233 243 212 206 228 265 228 242 270 264 228 247 278 230 255 237 198 249 125 319 57 248 286 346 35 25 8 13 12 6 14 11 8 6 8 9 4
311 311 313 312 310 311 316 320 318 318 327 329 330 352 197 48 334 289 240 202 211 216 233 254 237 252 304 337 309 301 250 240 245 218 228 122 223 252 257 236 204 103 5 355 28 17 14 14 11 13 7 4 4 358
310 314 317 313 314 314 318 321 322 324 356 1 328 286 260 270 310 250 220 195 184 223 219 237 219 231 233 245 229 238 304 277 269 257 182 189 213 232 360 121 108 90 110 84 56 56 41 24 36 30 21 11 1 350
311 319 318 316 316 318 320 320 335 344 316 300 288 290 294 244 237 252 212 212 202 238 187 218 200 196 156 169 109 294 257 298 268 323 184 174 156 164 192 108 88 72 117 57 60 46 36 42 43 41 25 12 7 4
317 323 319 318 321 324 326 323 337 332 325 329 265 256 234 225 242 220 217 214 204 212 192 181 163 149 137 136 152 122 279 255 324 333 318 157 154 151 165 110 84 72 51 113 60 44 76 39 47 38 36 26 22 18
321 323 317 318 331 349 338 332 330 328 333 270 236 245 213 216 230 210 249 268 22 284 67 64 134 147 188 165 160 202 221 57 331 291 309 133 96 315 78 90 70 65 63 42 79 77 56 67 53 58 35 24 26 25
330 327 316 325 316 317 317 319 315 312 280 265 232 241 230 233 269 271 246 256 270 216 221 299 75 143 133 126 228 229 232 246 202 233 209 142 179 201 155 106 59 69 68 42 87 66 64 51 56 50 29 31 24 30
334 332 281 312 308 305 311 310 307 219 246 240 238 263 284 286 277 287 275 320 305 309 186 147 239 155 189 195 178 207 155 220 243 222 228 208 179 172 151 145 152 100 80 55 59 95 85 61 62 52 48 46 24 23
336 333 301 296 302 309 311 285 222 212 232 233 242 258 267 273 277 280 284 279 245 276 256 166 163 225 202 189 189 157 200 217 220 241 240 185 163 180 180 163 170 150 121 76 48 124 111 88 92 50 48 49 44 33
310 308 312 321 313 321 320 239 237 249 235 237 257 257 265 271 273 277 285 293 295 201 233 173 189 217 220 196 208 222 220 231 249 248 143 168 229 205 188 197 169 162 164 184 94 131 110 73 86 73 71 54 34 25
309 321 333 330 309 324 292 243 220 257 258 278 256 265 270 273 275 277 279 282 273 250 223 343 159 192 230 230 258 346 209 223 241 248 226 227 225 200 200 200 177 173 172 201 170 159 92 89 115 99 80 76 44 21
304 314 325 349 305 289 267 260 232 256 264 263 294 281 277 282 288 286 289 288 293 287 220 203 238 247 255 268 195 243 268 274 223 192 245 218 236 188 198 189 193 195 212 222 156 172 130 116 123 92 80 64 48 37
308 301 313 309 267 246 259 268 249 260 270 265 264 289 282 283 294 301 304 306 289 240 309 250 244 252 259 264 273 271 276 214 210 190 219 221 187 218 212 197 198 202 224 165 112 136 148 119 130 120 107 64 54 59
297 302 285 275 252 249 243 232 243 285 311 286 291 279 270 283 283 278 282 283 282 266 235 239 246 247 253 257 260 255 299 287 261 211 208 203 189 209 208 203 198 209 173 149 143 154 133 119 135 122 108 73 51 45
301 291 249 217 243 244 257 237 250 236 244 276 314 313 295 295 287 294 275 262 257 267 272 270 260 240 245 245 235 233 253 240 259 208 207 190 193 223 194 200 195 219 201 159 151 157 147 136 114 133 114 87 97 15
259 237 231 227 208 253 243 242 260 270 274 289 289 286 284 278 281 281 279 284 287 291 286 283 272 237 238 240 252 257 256 249 243 242 219 211 200 176 176 181 214 190 193 188 166 155 156 150 145 140 125 101 95 357
269 240 226 253 248 234 246 260 267 261 261 265 268 270 278 293 299 300 297 294 323 360 9 17 275 261 273 232 200 262 272 247 290 225 199 210 203 186 170 181 197 187 159 160 182 161 151 150 157 164 159 114 200 335
250 236 225 243 232 251 266 268 280 305 312 302 293 301 309 297 276 266 12 8 8 6 357 4 357 328 215 152 32 360 297 62 29 212 231 216 207 217 199 206 200 192 181 192 178 172 172 167 173 176 179 171 160 163
234 247 240 262 280 284 284 290 292 296 284 296 301 305 271 240 17 2 2 15 21 23 26 15 19 348 304 88 78 21 31 16 22 12 244 216 200 205 203 199 205 193 182 179 181 181 179 171 175 176 168 180 220 181
226 249 249 259 262 272 286 296 300 293 280 285 327 343 349 8 226 312 70 31 352 4 31 34 27 355 6 30 29 18 1 7 6 265 309 274 222 229 205 204 191 184 185 181 174 166 170 171 165 170 188 195 198 198
243 258 260 265 271 275 281 274 272 273 289 307 290 287 281 300 315 23 20 1 358 14 15 5 342 322 349 20 19 3 6 0 352 11 20 270 270 204 204 198 188 177 183 173 173 176 175 176 180 173 183 191 198 209
271 264 251 254 258 262 263 263 272 278 280 274 286 294 266 133 37 19 24 21 18 17 21 338 338 360 15 13 26 15 14 20 26 16 356 349 249 238 290 196 182 181 183 181 178 177 177 175 170 168 171 174 180 171
269 273 268 263 264 267 269 274 277 281 280 276 280 279 284 143 86 40 34 25 14 1 2 9 13 13 18 17 16 7 16 25 26 354 320 263 308 244 268 210 184 185 193 195 199 195 188 187 184 174 177 171 170 171
254 255 275 281 282 288 280 267 269 250 262 266 270 288 276 87 72 36 12 13 16 23 20 5 3 8 21 27 21 15 24 12 39 46 37 353 218 227 76 171 172 166 165 164 166 181 169 176 188 180 180 165 167 182
280 272 263 279 285 298 342 188 271 265 238 235 267 64 61 74 75 26 12 17 15 15 39 57 55 57 59 57 54 50 50 42 26 32 51 58 85 107 137 142 140 173 193 199 190 156 152 159 167 168 169 176 185 196
Wind_Speed_850mb
62 62 62 61 59 55 54 59 59 64 59 51 49 46 46 48 49 48 52 14 32 27 63 55 34 50 60 50 5 20 22 10 8 12 6 7 5 8 9 8 15 7 8 7 9 5 8 40 16 18 20 35 30 33
61 63 60 59 62 62 58 54 61 66 55 48 49 47 46 46 45 49 50 14 25 33 57 75 54 45 46 34 38 7 5 12 9 6 6 6 4 7 11 7 12 6 4 5 8 4 8 32 32 39 41 46 32 47
62 62 62 62 66 63 67 59 61 64 64 52 49 47 45 46 47 52 54 38 22 33 52 16 25 16 13 24 34 9 8 7 7 9 7 5 5 4 4 5 6 6 10 4 4 12 12 36 54 54 68 44 50 55
64 65 65 62 62 65 73 69 63 60 59 59 48 47 45 48 50 55 55 27 22 18 10 22 30 42 7 28 24 17 11 11 15 13 9 5 5 9 2 4 4 9 11 15 4 16 4 12 41 47 57 49 46 49
69 67 67 66 66 70 70 65 54 54 59 53 46 45 47 49 53 52 47 28 34 21 9 30 52 26 29 39 25 24 17 10 6 9 6 5 9 1 8 5 5 13 8 6 6 26 21 30 16 31 52 51 43 39
71 70 68 68 67 62 65 62 55 54 57 55 44 44 46 48 51 35 11 4 20 37 11 8 25 24 22 31 30 33 26 19 10 11 9 11 12 9 4 3 5 21 29 25 9 24 32 31 23 29 35 44 45 41
65 67 64 56 54 57 59 60 53 52 53 42 38 38 42 44 39 16 8 3 18 29 8 11 10 11 22 26 29 35 31 24 19 10 8 8 14 4 4 4 10 12 22 28 30 27 25 30 28 33 27 24 34 34
53 54 52 52 53 54 56 56 49 46 42 36 35 40 40 32 19 15 27 10 19 20 11 6 8 13 20 16 14 22 19 24 14 10 9 8 13 7 4 5 14 13 14 23 25 20 24 28 27 25 32 29 32 41
51 51 52 51 50 52 54 54 47 43 41 37 32 34 27 7 7 10 16 19 39 17 7 8 5 7 7 14 9 10 16 5 14 7 6 4 4 2 6 11 9 16 8 30 25 24 28 28 27 30 33 32 43 41
47 48 46 46 47 49 50 48 44 44 33 26 18 8 4 5 12 9 7 8 11 15 13 10 27 10 8 16 5 3 6 5 4 9 6 3 3 18 16 8 7 4 2 23 30 31 34 31 33 31 30 29 29 33
48 47 45 45 46 46 45 44 39 37 23 17 10 8 8 4 9 9 10 14 15 9 16 17 35 18 1 6 4 2 5 7 4 4 5 5 3 3 3 11 6 7 9 9 24 17 18 27 21 25 25 24 21 23
45 43 42 43 43 41 39 33 24 20 16 21 27 37 24 7 11 10 7 8 12 8 21 10 19 28 10 6 4 4 3 6 7 9 8 6 6 15 4 12 14 18 16 12 22 28 27 36 34 29 25 24 25 23
41 38 36 36 36 32 29 19 21 28 32 14 5 6 6 9 8 11 11 8 7 9 21 22 7 16 9 7 3 1 1 8 21 8 4 4 25 18 6 6 18 21 24 22 15 31 23 27 26 31 35 37 35 32
37 32 30 27 16 20 18 26 28 29 17 7 7 8 11 10 11 12 14 12 8 24 10 6 15 12 11 8 6 5 7 3 7 4 2 8 16 3 16 20 11 17 19 23 29 33 30 27 32 34 35 39 39 38
36 29 22 11 16 28 32 35 31 25 9 10 11 9 13 29 34 33 40 41 36 12 5 4 5 11 4 2 5 2 4 4 8 7 3 20 28 15 11 7 8 14 16 14 19 26 27 27 30 31 34 33 38 52
31 14 11 29 40 46 50 42 22 18 9 11 17 15 33 25 25 31 24 17 31 15 12 6 2 6 7 7 6 10 6 8 7 6 13 15 32 28 23 15 8 8 11 9 14 23 24 22 23 25 26 29 31 49
24 7 30 46 53 45 30 21 8 15 14 13 16 30 44 46 40 50 45 26 10 19 5 5 1 10 5 3 5 7 9 8 16 21 17 6 19 12 22 16 16 11 10 6 10 22 22 15 14 13 22 32 28 36
31 31 33 32 37 35 13 10 11 14 21 27 19 35 38 45 50 53 54 44 27 20 34 11 15 7 6 7 6 8 21 17 21 20 23 9 18 19 22 13 22 18 11 4 1 25 21 19 18 26 23 24 27 35
38 35 27 23 18 17 8 10 16 13 18 28 38 45 49 49 53 54 53 47 36 31 8 13 6 7 10 13 6 4 15 25 31 28 20 20 29 21 14 15 20 22 10 9 4 5 13 17 22 18 21 25 25 32
38 28 19 12 19 9 10 14 17 16 12 19 41 41 41 40 45 46 45 40 28 34 18 8 8 16 22 16 14 17 32 39 18 4 14 25 11 24 20 17 19 12 10 11 17 21 21 22 18 21 26 19 25 28
37 5 18 19 25 23 14 13 15 21 23 25 33 40 35 38 35 34 37 39 31 7 8 20 33 40 48 44 38 28 20 24 29 27 31 30 32 23 25 24 17 20 17 11 31 20 19 20 21 25 15 21 23 20
40 23 26 20 13 13 19 25 20 17 23 30 42 45 23 25 37 48 53 44 28 28 38 53 48 48 51 49 44 24 20 24 28 34 24 31 34 37 28 40 32 24 13 10 19 29 28 23 24 18 16 15 16 19
21 24 20 15 14 13 15 23 20 16 10 9 25 24 15 23 36 46 25 36 47 51 48 46 46 56 49 34 25 16 26 31 26 29 33 31 26 29 37 33 34 32 31 22 24 30 22 23 19 24 16 15 14 7
28 15 9 13 25 11 12 19 25 27 25 21 22 35 31 32 42 29 20 33 40 42 40 26 13 10 16 23 18 18 26 29 31 29 37 33 22 33 38 29 24 25 22 25 27 22 17 23 20 18 15 12 8 4
11 12 12 13 13 10 10 15 25 23 31 31 36 27 16 36 21 27 26 27 38 46 33 18 18 9 6 22 18 23 7 11 14 30 20 31 31 42 30 31 26 22 29 26 32 30 27 26 19 16 10 9 2 1
9 11 11 9 9 12 13 26 25 24 19 14 7 14 18 11 15 11 4 31 34 45 48 36 44 32 11 2 12 12 5 10 11 14 19 15 35 36 53 53 40 30 36 36 38 34 30 29 22 14 8 2 7 4
10 13 18 25 34 40 20 32 39 18 23 20 15 17 8 8 7 13 13 32 38 42 38 31 24 45 20 18 12 13 16 15 3 6 8 15 22 32 38 40 41 41 42 36 34 34 40 34 26 17 20 15 7 8
23 19 26 36 39 41 26 23 26 28 17 16 11 6 12 3 4 9 9 27 31 46 56 48 30 42 44 36 31 20 21 19 14 5 4 10 29 34 34 33 27 46 42 41 38 34 32 29 35 32 23 20 15 8
21 29 41 37 43 39 30 23 25 39 35 39 21 16 4 7 6 13 20 27 25 43 50 43 33 36 31 29 37 29 27 22 21 19 8 9 8 17 39 38 42 55 53 45 42 41 39 33 31 32 30 24 18 10
35 41 36 38 32 27 49 39 46 54 46 46 42 42 20 11 17 10 10 12 20 24 19 17 27 32 30 27 25 26 25 25 17 16 13 14 16 34 20 45 56 56 55 55 49 47 41 40 39 37 33 29 19 13
26 25 27 36 33 44 45 46 36 36 43 41 38 34 19 22 14 36 37 30 25 24 23 27 31 30 24 20 22 23 25 25 19 12 9 3 11 25 18 40 50 50 45 45 44 46 39 33 35 38 39 32 26 28
22 13 19 23 28 34 27 24 26 27 28 28 25 31 15 14 13 19 42 35 32 30 26 22 23 23 23 20 12 13 11 11 17 22 14 4 21 21 7 26 27 44 50 45 36 28 34 41 41 45 32 30 31 25
33 36 34 20 7 6 2 12 6 7 19 20 5 20 18 14 13 21 29 34 28 22 22 27 29 26 25 25 25 22 15 15 11 6 15 17 21 17 11 11 20 26 30 34 41 33 29 35 36 39 40 37 30 20
Wind_Direction_850mb
309 309 310 313 316 315 321 321 320 323 319 315 317 322 328 328 329 327 324 306 251 267 282 288 294 284 304 301 295 314 337 2 318 9 341 359 345 340 314 355 337 15 325 344 317 43 24 342 350 30 313 316 305 323
308 309 309 312 312 311 312 315 313 317 318 315 312 315 322 325 325 325 314 296 286 268 272 294 300 290 272 267 273 279 255 280 328 330 3 314 328 319 331 357 344 41 353 321 7 18 357 1 348 325 329 282 321 11
308 309 309 310 310 310 312 310 311 312 317 308 309 311 315 321 322 321 311 312 262 281 302 304 326 316 271 241 254 215 252 252 270 320 301 283 283 263 342 329 283 325 38 19 348 28 53 19 354 344 329 338 3 11
310 309 308 308 309 308 310 311 309 309 307 312 302 309 311 315 319 316 308 300 236 269 276 282 293 296 321 225 245 254 227 260 280 291 255 268 252 240 140 258 1 305 329 325 257 349 279 334 350 331 326 349 2 7
306 305 307 305 305 307 311 310 312 311 310 312 298 304 311 311 314 314 310 291 208 224 284 299 320 358 224 223 242 247 240 235 292 264 221 244 254 215 96 274 30 350 336 7 328 345 325 318 339 344 330 339 354 0
302 302 299 300 305 312 311 310 313 313 310 308 299 303 303 308 312 316 322 354 198 218 281 303 288 293 206 223 229 246 248 254 253 284 261 263 282 0 104 105 353 2 345 341 294 318 320 340 350 332 330 333 350 340
304 303 302 309 313 310 310 311 316 314 310 311 310 303 298 305 300 232 248 184 195 213 264 281 281 299 222 223 239 236 237 230 232 271 251 252 304 107 60 52 26 331 339 336 338 342 336 333 318 323 316 339 344 355
312 317 316 313 311 310 310 313 316 315 321 321 311 300 297 304 286 268 216 197 183 215 250 269 275 279 203 239 230 230 216 218 228 238 268 269 311 85 79 73 359 5 333 344 347 337 322 328 326 350 20 17 8 10
312 311 311 312 311 312 313 317 319 309 318 320 311 304 299 222 229 233 243 212 206 228 265 228 242 270 264 228 247 278 230 255 237 198 249 125 319 57 248 286 346 35 25 8 13 12 6 14 11 8 6 8 9 4
311 311 313 312 310 311 316 320 318 318 327 329 330 352 197 48 334 289 240 202 211 216 233 254 237 252 304 337 309 301 250 240 245 218 228 122 223 252 257 236 204 103 5 355 28 17 14 14 11 13 7 4 4 358
310 314 317 313 314 314 318 321 322 324 356 1 328 286 260 270 310 250 220 195 184 223 219 237 219 231 233 245 229 238 304 277 269 257 182 189 213 232 360 121 108 90 110 84 56 56 41 24 36 30 21 11 1 350
311 319 318 316 316 318 320 320 335 344 316 300 288 290 294 244 237 252 212 212 202 238 187 218 200 196 156 169 109 294 257 298 268 323 184 174 156 164 192 108 88 72 117 57 60 46 36 42 43 41 25 12 7 4
317 323 319 318 321 324 326 323 337 332 325 329 265 256 234 225 242 220 217 214 204 212 192 181 163 149 137 136 152 122 279 255 324 333 318 157 154 151 165 110 84 72 51 113 60 44 76 39 47 38 36 26 22 18
321 323 317 318 331 349 338 332 330 328 333 270 236 245 213 216 230 210 249 268 22 284 67 64 134 147 188 165 160 202 221 57 331 291 309 133 96 315 78 90 70 65 63 42 79 77 56 67 53 58 35 24 26 25
330 327 316 325 316 317 317 319 315 312 280 265 232 241 230 233 269 271 246 256 270 216 221 299 75 143 133 126 228 229 232 246 202 233 209 142 179 201 155 106 59 69 68 42 87 66 64 51 56 50 29 31 24 30
334 332 281 312 308 305 311 310 307 219 246 240 238 263 284 286 277 287 275 320 305 309 186 147 239 155 189 195 178 207 155 220 243 222 228 208 179 172 151 145 152 100 80 55 59 95 85 61 62 52 48 46 24 23
336 333 301 296 302 309 311 285 222 212 232 233 242 258 267 273 277 280 284 279 245 276 256 166 163 225 202 189 189 157 200 217 220 241 240 185 163 180 180 163 170 150 121 76 48 124 111 88 92 50 48 49 44 33
310 308 312 321 313 321 320 239 237 249 235 237 257 257 265 271 273 277 285 293 295 201 233 173 189 217 220 196 208 222 220 231 249 248 143 168 229 205 188 197 169 162 164 184 94 131 110 73 86 73 71 54 34 25
309 321 333 330 309 324 292 243 220 257 258 278 256 265 270 273 275 277 279 282 273 250 223 343 159 192 230 230 258 346 209 223 241 248 226 227 225 200 200 200 177 173 172 201 170 159 92 89 115 99 80 76 44 21
304 314 325 349 305 289 267 260 232 256 264 263 294 281 277 282 288 286 289 288 293 287 220 203 238 247 255 268 195 243 268 274 223 192 245 218 236 188 198 189 193 195 212 222 156 172 130 116 123 92 80 64 48 37
308 301 313 309 267 246 259 268 249 260 270 265 264 289 282 283 294 301 304 306 289 240 309 250 244 252 259 264 273 271 276 214 210 190 219 221 187 218 212 197 198 202 224 165 112 136 148 119 130 120 107 64 54 59
297 302 285 275 252 249 243 232 243 285 311 286 291 279 270 283 283 278 282 283 282 266 235 239 246 247 253 257 260 255 299 287 261 211 208 203 189 209 208 203 198 209 173 149 143 154 133 119 135 122 108 73 51 45
301 291 249 217 243 244 257 237 250 236 244 276 314 313 295 295 287 294 275 262 257 267 272 270 260 240 245 245 235 233 253 240 259 208 207 190 193 223 194 200 195 219 201 159 151 157 147 136 114 133 114 87 97 15
259 237 231 227 208 253 243 242 260 270 274 289 289 286 284 278 281 281 279 284 287 291 286 283 272 237 238 240 252 257 256 249 243 242 219 211 200 176 176 181 214 190 193 188 166 155 156 150 145 140 125 101 95 357
269 240 226 253 248 234 246 260 267 261 261 265 268 270 278 293 299 300 297 294 323 360 9 17 275 261 273 232 200 262 272 247 290 225 199 210 203 186 170 181 197 187 159 160 182 161 151 150 157 164 159 114 200 335
250 236 225 243 232 251 266 268 280 305 312 302 293 301 309 297 276 266 12 8 8 6 357 4 357 328 215 152 32 360 297 62 29 212 231 216 207 217 199 206 200 192 181 192 178 172 172 167 173 176 179 171 160 163
234 247 240 262 280 284 284 290 292 296 284 296 301 305 271 240 17 2 2 15 21 23 26 15 19 348 304 88 78 21 31 16 22 12 244 216 200 205 203 199 205 193 182 179 181 181 179 171 175 176 168 180 220 181
226 249 249 259 262 272 286 296 300 293 280 285 327 343 349 8 226 312 70 31 352 4 31 34 27 355 6 30 29 18 1 7 6 265 309 274 222 229 205 204 191 184 185 181 174 166 170 171 165 170 188 195 198 198
243 258 260 265 271 275 281 274 272 273 289 307 290 287 281 300 315 23 20 1 358 14 15 5 342 322 349 20 19 3 6 0 352 11 20 270 270 204 204 198 188 177 183 173 173 176 175 176 180 173 183 191 198 209
271 264 251 254 258 262 263 263 272 278 280 274 286 294 266 133 37 19 24 21 18 17 21 338 338 360 15 13 26 15 14 20 26 16 356 349 249 238 290 196 182 181 183 181 178 177 177 175 170 168 171 174 180 171
269 273 268 263 264 267 269 274 277 281 280 276 280 279 284 143 86 40 34 25 14 1 2 9 13 13 18 17 16 7 16 25 26 354 320 263 308 244 268 210 184 185 193 195 199 195 188 187 184 174 177 171 170 171
254 255 275 281 282 288 280 267 269 250 262 266 270 288 276 87 72 36 12 13 16 23 20 5 3 8 21 27 21 15 24 12 39 46 37 353 218 227 76 171 172 166 165 164 166 181 169 176 188 180 180 165 167 182
280 272 263 279 285 298 342 188 271 265 238 235 267 64 61 74 75 26 12 17 15 15 39 57 55 57 59 57 54 50 50 42 26 32 51 58 85 107 137 142 140 173 193 199 190 156 152 159 167 168 169 176 185 196